Time,TemperatureF,DewpointF,PressureIn,WindDirection,WindDirectionDegrees,WindSpeedMPH,WindSpeedGustMPH,Humidity,HourlyPrecipIn,Conditions,Clouds,dailyrainin,SoftwareType,DateUTC
2013-07-10 00:00:00,70.8,0.0,30.13,North,11,0.0,2.0,0,0.00,,SCT031,0.05,VWS V14.01,2013-07-10 04:00:00,
2013-07-10 00:01:00,70.8,0.0,30.13,North,11,0.0,0.0,0,0.00,,SCT031,0.00,VWS V14.01,2013-07-10 04:01:00,
2013-07-10 00:06:00,70.8,0.0,30.13,North,11,0.0,0.0,0,0.00,,SCT031,0.00,VWS V14.01,2013-07-10 04:06:00,
2013-07-10 00:11:00,70.8,0.0,30.13,NNE,12,0.0,1.0,0,0.00,,SCT031,0.00,VWS V14.01,2013-07-10 04:11:00,
2013-07-10 00:16:00,70.7,0.0,30.13,South,181,0.0,1.0,0,0.00,,SCT031,0.00,VWS V14.01,2013-07-10 04:16:00,
2013-07-10 00:21:00,70.7,0.0,30.12,South,181,0.0,1.0,0,0.00,,SCT031,0.00,VWS V14.01,2013-07-10 04:21:00,
2013-07-10 00:26:00,70.7,0.0,30.12,South,181,0.0,1.0,0,0.00,,SCT031,0.00,VWS V14.01,2013-07-10 04:26:00,
2013-07-10 00:31:00,70.7,0.0,30.11,South,181,0.0,0.0,0,0.00,,SCT031,0.00,VWS V14.01,2013-07-10 04:31:00,
2013-07-10 00:36:00,70.5,0.0,30.11,South,181,0.0,0.0,0,0.00,,SCT031,0.00,VWS V14.01,2013-07-10 04:36:00,
2013-07-10 00:41:00,70.4,0.0,30.11,South,181,0.0,0.0,0,0.00,,SCT031,0.00,VWS V14.01,2013-07-10 04:41:00,
2013-07-10 00:46:00,70.4,0.0,30.11,South,177,0.0,0.0,0,0.00,,SCT031,0.00,VWS V14.01,2013-07-10 04:46:00,
2013-07-10 00:51:00,70.6,0.0,30.11,South,177,0.0,0.0,0,0.00,,SCT031,0.00,VWS V14.01,2013-07-10 04:51:00,
2013-07-10 00:56:00,70.5,0.0,30.11,South,177,0.0,0.0,0,0.00,,SCT031,0.00,VWS V14.01,2013-07-10 04:56:00,
2013-07-10 01:01:00,70.6,0.0,30.11,SE,145,0.0,0.0,0,0.00,,SCT031,0.00,VWS V14.01,2013-07-10 05:01:00,
2013-07-10 01:06:00,70.7,0.0,30.10,SE,146,0.0,1.0,0,0.00,,SCT031,0.00,VWS V14.01,2013-07-10 05:06:00,
2013-07-10 01:11:00,70.8,0.0,30.10,SE,145,0.0,1.0,0,0.00,,SCT031,0.00,VWS V14.01,2013-07-10 05:11:00,
2013-07-10 01:16:00,70.8,0.0,30.10,SE,145,0.0,1.0,0,0.00,,SCT031,0.00,VWS V14.01,2013-07-10 05:16:00,
2013-07-10 01:21:00,70.7,0.0,30.10,SE,146,0.0,1.0,0,0.00,,SCT031,0.00,VWS V14.01,2013-07-10 05:21:00,
2013-07-10 01:26:00,70.6,0.0,30.10,SE,146,0.0,1.0,0,0.00,,SCT031,0.00,VWS V14.01,2013-07-10 05:26:00,
2013-07-10 01:31:00,70.6,0.0,30.10,SSE,156,0.0,0.0,0,0.00,,SCT031,0.00,VWS V14.01,2013-07-10 05:31:00,
2013-07-10 01:36:00,70.5,0.0,30.09,SSE,155,0.0,0.0,0,0.00,,SCT031,0.00,VWS V14.01,2013-07-10 05:36:00,
2013-07-10 01:41:00,70.5,0.0,30.09,SSE,156,0.0,0.0,0,0.00,,SCT031,0.00,VWS V14.01,2013-07-10 05:41:00,
2013-07-10 01:46:00,70.3,0.0,30.09,SSE,157,0.0,0.0,0,0.00,,SCT031,0.00,VWS V14.01,2013-07-10 05:46:00,
2013-07-10 01:51:00,70.2,0.0,30.09,SSE,156,0.0,0.0,0,0.00,,SCT031,0.00,VWS V14.01,2013-07-10 05:51:00,
2013-07-10 01:56:00,70.2,0.0,30.09,SSE,156,0.0,0.0,0,0.00,,SCT031,0.00,VWS V14.01,2013-07-10 05:56:00,
2013-07-10 02:01:00,70.2,0.0,30.09,SSE,156,0.0,0.0,0,0.00,,SCT031,0.00,VWS V14.01,2013-07-10 06:01:00,
2013-07-10 02:06:00,70.2,0.0,30.09,SSE,156,0.0,0.0,0,0.00,,SCT031,0.00,VWS V14.01,2013-07-10 06:06:00,
2013-07-10 02:11:00,70.1,0.0,30.10,SSE,156,0.0,0.0,0,0.00,,SCT031,0.00,VWS V14.01,2013-07-10 06:11:00,
2013-07-10 02:16:00,70.1,0.0,30.10,SSE,156,0.0,0.0,0,0.00,,SCT031,0.00,VWS V14.01,2013-07-10 06:16:00,
2013-07-10 02:21:00,70.1,0.0,30.09,SSE,157,0.0,0.0,0,0.00,,SCT031,0.00,VWS V14.01,2013-07-10 06:21:00,
2013-07-10 02:26:00,70.1,0.0,30.09,SSE,156,0.0,0.0,0,0.00,,SCT031,0.00,VWS V14.01,2013-07-10 06:26:00,
2013-07-10 02:31:00,70.0,0.0,30.09,SSE,156,0.0,0.0,0,0.00,,SCT031,0.00,VWS V14.01,2013-07-10 06:31:00,
2013-07-10 02:36:00,70.0,0.0,30.09,SSE,156,0.0,0.0,0,0.00,,SCT031,0.00,VWS V14.01,2013-07-10 06:36:00,
2013-07-10 02:41:00,69.9,0.0,30.09,SSE,156,0.0,0.0,0,0.00,,SCT031,0.00,VWS V14.01,2013-07-10 06:41:00,
2013-07-10 02:46:00,70.0,0.0,30.08,SSE,156,0.0,0.0,0,0.00,,SCT031,0.00,VWS V14.01,2013-07-10 06:46:00,
2013-07-10 02:51:00,69.9,0.0,30.08,SSE,156,0.0,0.0,0,0.00,,SCT031,0.00,VWS V14.01,2013-07-10 06:51:00,
2013-07-10 02:56:00,69.9,0.0,30.08,SSE,156,0.0,0.0,0,0.00,,SCT031,0.00,VWS V14.01,2013-07-10 06:56:00,
2013-07-10 03:01:00,69.9,0.0,30.08,SSE,156,0.0,0.0,0,0.00,,SCT031,0.00,VWS V14.01,2013-07-10 07:01:00,
2013-07-10 03:06:00,69.8,0.0,30.08,SSE,156,0.0,0.0,0,0.00,,SCT031,0.00,VWS V14.01,2013-07-10 07:06:00,
2013-07-10 03:11:00,69.8,0.0,30.08,SSE,156,0.0,0.0,0,0.00,,SCT031,0.00,VWS V14.01,2013-07-10 07:11:00,
2013-07-10 03:16:00,69.8,0.0,30.07,SSE,156,0.0,0.0,0,0.00,,SCT031,0.00,VWS V14.01,2013-07-10 07:16:00,
2013-07-10 03:21:00,69.6,0.0,30.07,SSE,156,0.0,0.0,0,0.00,,SCT031,0.00,VWS V14.01,2013-07-10 07:21:00,
2013-07-10 03:26:00,69.6,0.0,30.07,SSE,156,0.0,0.0,0,0.00,,SCT031,0.00,VWS V14.01,2013-07-10 07:26:00,
2013-07-10 03:31:00,69.6,0.0,30.07,SSE,156,0.0,0.0,0,0.00,,SCT031,0.00,VWS V14.01,2013-07-10 07:31:00,
2013-07-10 03:36:00,69.4,0.0,30.07,SSE,156,0.0,0.0,0,0.00,,SCT031,0.00,VWS V14.01,2013-07-10 07:36:00,
2013-07-10 03:41:00,69.3,0.0,30.07,SSE,156,0.0,0.0,0,0.00,,SCT031,0.00,VWS V14.01,2013-07-10 07:41:00,
2013-07-10 03:46:00,69.2,0.0,30.07,SSE,156,0.0,0.0,0,0.00,,SCT031,0.00,VWS V14.01,2013-07-10 07:46:00,
2013-07-10 03:51:00,69.1,0.0,30.07,SSE,156,0.0,0.0,0,0.00,,SCT031,0.00,VWS V14.01,2013-07-10 07:51:00,
2013-07-10 03:56:00,69.1,0.0,30.06,SSE,156,0.0,0.0,0,0.00,,SCT031,0.00,VWS V14.01,2013-07-10 07:56:00,
2013-07-10 04:01:00,69.2,0.0,30.06,SSE,156,0.0,0.0,0,0.00,,SCT031,0.00,VWS V14.01,2013-07-10 08:01:00,
2013-07-10 04:06:00,69.2,0.0,30.06,SSE,156,0.0,0.0,0,0.00,,SCT031,0.00,VWS V14.01,2013-07-10 08:06:00,
2013-07-10 04:11:00,69.1,0.0,30.07,SSE,156,0.0,0.0,0,0.00,,SCT031,0.00,VWS V14.01,2013-07-10 08:11:00,
2013-07-10 04:16:00,69.0,0.0,30.07,SSE,156,0.0,0.0,0,0.00,,SCT031,0.00,VWS V14.01,2013-07-10 08:16:00,
2013-07-10 04:21:00,69.0,0.0,30.07,SSE,156,0.0,0.0,0,0.00,,SCT031,0.00,VWS V14.01,2013-07-10 08:21:00,
2013-07-10 04:26:00,68.9,0.0,30.07,SSE,156,0.0,0.0,0,0.00,,SCT031,0.00,VWS V14.01,2013-07-10 08:26:00,
2013-07-10 04:31:00,69.0,0.0,30.07,SSE,156,0.0,0.0,0,0.00,,SCT031,0.00,VWS V14.01,2013-07-10 08:31:00,
2013-07-10 04:36:00,69.1,0.0,30.08,SSE,156,0.0,0.0,0,0.00,,SCT031,0.00,VWS V14.01,2013-07-10 08:36:00,
2013-07-10 04:41:00,69.0,0.0,30.08,SSE,155,0.0,0.0,0,0.00,,SCT031,0.00,VWS V14.01,2013-07-10 08:41:00,
2013-07-10 04:46:00,68.9,0.0,30.08,SSE,156,0.0,0.0,0,0.00,,SCT031,0.00,VWS V14.01,2013-07-10 08:46:00,
2013-07-10 04:51:00,68.8,0.0,30.07,SSE,156,0.0,0.0,0,0.00,,SCT031,0.00,VWS V14.01,2013-07-10 08:51:00,
2013-07-10 04:56:00,68.9,0.0,30.07,SSE,156,0.0,0.0,0,0.00,,SCT031,0.00,VWS V14.01,2013-07-10 08:56:00,
2013-07-10 05:01:00,69.0,0.0,30.07,SSE,156,0.0,0.0,0,0.00,,SCT031,0.00,VWS V14.01,2013-07-10 09:01:00,
2013-07-10 05:06:00,69.1,0.0,30.07,SSE,156,0.0,0.0,0,0.00,,SCT031,0.00,VWS V14.01,2013-07-10 09:06:00,
2013-07-10 05:11:00,69.2,0.0,30.08,SSE,156,0.0,0.0,0,0.00,,SCT031,0.00,VWS V14.01,2013-07-10 09:11:00,
2013-07-10 05:16:00,69.3,0.0,30.08,SSE,156,0.0,0.0,0,0.00,,SCT031,0.00,VWS V14.01,2013-07-10 09:16:00,
2013-07-10 05:21:00,69.4,0.0,30.08,SSE,156,0.0,0.0,0,0.00,,SCT031,0.00,VWS V14.01,2013-07-10 09:21:00,
2013-07-10 05:26:00,69.4,0.0,30.08,SSE,156,0.0,0.0,0,0.00,,SCT031,0.00,VWS V14.01,2013-07-10 09:26:00,
2013-07-10 05:31:00,69.5,0.0,30.08,SSE,156,0.0,0.0,0,0.00,,SCT031,0.00,VWS V14.01,2013-07-10 09:31:00,
2013-07-10 05:36:00,69.6,0.0,30.08,SSE,156,0.0,0.0,0,0.00,,SCT031,0.00,VWS V14.01,2013-07-10 09:36:00,
2013-07-10 05:41:00,69.8,0.0,30.08,SSE,156,0.0,0.0,0,0.00,,SCT031,0.00,VWS V14.01,2013-07-10 09:41:00,
2013-07-10 05:46:00,69.9,0.0,30.08,SSE,156,0.0,0.0,0,0.00,,SCT031,0.00,VWS V14.01,2013-07-10 09:46:00,
2013-07-10 05:51:00,70.1,0.0,30.08,SSE,156,0.0,0.0,0,0.00,,SCT031,0.00,VWS V14.01,2013-07-10 09:51:00,
2013-07-10 05:56:00,70.1,0.0,30.08,SSE,156,0.0,0.0,0,0.00,,SCT031,0.00,VWS V14.01,2013-07-10 09:56:00,
2013-07-10 06:01:00,70.1,0.0,30.08,SSE,156,0.0,0.0,0,0.00,,SCT031,0.00,VWS V14.01,2013-07-10 10:01:00,
2013-07-10 06:06:00,70.1,0.0,30.08,SSE,156,0.0,0.0,0,0.00,,SCT031,0.00,VWS V14.01,2013-07-10 10:06:00,
2013-07-10 06:11:00,70.1,0.0,30.09,SSE,156,0.0,0.0,0,0.00,,SCT031,0.00,VWS V14.01,2013-07-10 10:11:00,
2013-07-10 06:16:00,70.2,0.0,30.09,SSE,156,0.0,0.0,0,0.00,,SCT031,0.00,VWS V14.01,2013-07-10 10:16:00,
2013-07-10 06:21:00,70.2,0.0,30.09,SSE,156,0.0,0.0,0,0.00,,SCT031,0.00,VWS V14.01,2013-07-10 10:21:00,
2013-07-10 06:26:00,70.4,0.0,30.09,SSE,156,0.0,0.0,0,0.00,,SCT031,0.00,VWS V14.01,2013-07-10 10:26:00,
2013-07-10 06:31:00,70.5,0.0,30.09,SSE,156,0.0,0.0,0,0.00,,SCT031,0.00,VWS V14.01,2013-07-10 10:31:00,
2013-07-10 06:36:00,70.5,0.0,30.09,SSE,156,0.0,0.0,0,0.00,,SCT031,0.00,VWS V14.01,2013-07-10 10:36:00,
2013-07-10 06:41:00,70.5,0.0,30.09,SSE,156,0.0,0.0,0,0.00,,SCT031,0.00,VWS V14.01,2013-07-10 10:41:00,
2013-07-10 06:46:00,70.5,0.0,30.09,SSE,156,0.0,0.0,0,0.00,,SCT031,0.00,VWS V14.01,2013-07-10 10:46:00,
2013-07-10 06:51:00,70.6,0.0,30.09,SSE,156,0.0,0.0,0,0.00,,SCT031,0.00,VWS V14.01,2013-07-10 10:51:00,
2013-07-10 06:56:00,70.7,0.0,30.09,SSE,156,0.0,0.0,0,0.00,,SCT031,0.00,VWS V14.01,2013-07-10 10:56:00,
2013-07-10 07:01:00,70.7,0.0,30.09,SSE,156,0.0,0.0,0,0.00,,SCT031,0.00,VWS V14.01,2013-07-10 11:01:00,
2013-07-10 07:06:00,70.7,0.0,30.09,SSE,156,0.0,0.0,0,0.00,,SCT031,0.00,VWS V14.01,2013-07-10 11:06:00,
2013-07-10 07:11:00,70.7,0.0,30.08,SSE,156,0.0,0.0,0,0.00,,SCT031,0.00,VWS V14.01,2013-07-10 11:11:00,
2013-07-10 07:16:00,70.8,0.0,30.08,SSE,156,0.0,0.0,0,0.00,,SCT031,0.00,VWS V14.01,2013-07-10 11:16:00,
2013-07-10 07:21:00,70.7,0.0,30.08,SSE,156,0.0,0.0,0,0.00,,SCT031,0.00,VWS V14.01,2013-07-10 11:21:00,
2013-07-10 07:26:00,70.7,0.0,30.08,ESE,118,1.0,2.0,0,0.00,,SCT031,0.00,VWS V14.01,2013-07-10 11:26:00,
2013-07-10 07:31:00,70.7,0.0,30.08,ESE,120,0.0,0.0,0,0.00,,SCT031,0.00,VWS V14.01,2013-07-10 11:31:00,
2013-07-10 07:36:00,70.9,0.0,30.09,SSE,153,0.0,1.0,0,0.00,,SCT031,0.00,VWS V14.01,2013-07-10 11:36:00,
2013-07-10 07:41:00,70.9,0.0,30.08,South,179,2.0,2.0,0,0.00,,SCT031,0.00,VWS V14.01,2013-07-10 11:41:00,
2013-07-10 07:46:00,70.9,0.0,30.08,SW,218,0.0,2.0,0,0.00,,SCT031,0.00,VWS V14.01,2013-07-10 11:46:00,
2013-07-10 07:51:00,70.8,0.0,30.08,SE,129,1.0,2.0,0,0.00,,SCT031,0.00,VWS V14.01,2013-07-10 11:51:00,
2013-07-10 07:56:00,70.8,0.0,30.08,South,184,0.0,2.0,0,0.00,,SCT031,0.00,VWS V14.01,2013-07-10 11:56:00,
2013-07-10 08:01:00,71.0,0.0,30.08,SE,145,0.0,1.0,0,0.00,,SCT031,0.00,VWS V14.01,2013-07-10 12:01:00,
2013-07-10 08:06:00,71.0,0.0,30.08,SW,220,0.0,2.0,0,0.00,,SCT031,0.00,VWS V14.01,2013-07-10 12:06:00,
2013-07-10 08:11:00,71.0,0.0,30.08,ESE,103,0.0,3.0,0,0.00,,SCT031,0.00,VWS V14.01,2013-07-10 12:11:00,
2013-07-10 08:16:00,71.0,0.0,30.08,East,98,0.0,3.0,0,0.00,,SCT031,0.00,VWS V14.01,2013-07-10 12:16:00,
2013-07-10 08:21:00,71.3,0.0,30.08,ESE,120,0.0,3.0,0,0.00,,SCT031,0.00,VWS V14.01,2013-07-10 12:21:00,
2013-07-10 08:26:00,71.4,0.0,30.08,SSW,203,1.0,3.0,0,0.00,,SCT031,0.00,VWS V14.01,2013-07-10 12:26:00,
2013-07-10 08:31:00,71.4,0.0,30.08,ENE,61,1.0,2.0,0,0.00,,SCT031,0.00,VWS V14.01,2013-07-10 12:31:00,
2013-07-10 08:36:00,71.4,0.0,30.08,ESE,119,1.0,2.0,0,0.00,,SCT031,0.00,VWS V14.01,2013-07-10 12:36:00,
2013-07-10 08:41:00,71.5,0.0,30.09,SSE,164,0.0,2.0,0,0.00,,SCT031,0.00,VWS V14.01,2013-07-10 12:41:00,
2013-07-10 08:46:00,71.6,0.0,30.09,SSE,158,2.0,3.0,0,0.00,,SCT031,0.00,VWS V14.01,2013-07-10 12:46:00,
2013-07-10 08:51:00,71.7,0.0,30.09,SSE,162,0.0,3.0,0,0.00,,SCT031,0.00,VWS V14.01,2013-07-10 12:51:00,
2013-07-10 08:56:00,71.8,0.0,30.09,SSE,148,1.0,3.0,0,0.00,,SCT031,0.00,VWS V14.01,2013-07-10 12:56:00,
2013-07-10 09:01:00,72.0,0.0,30.09,SSW,200,2.0,3.0,0,0.00,,SCT031,0.00,VWS V14.01,2013-07-10 13:01:00,
2013-07-10 09:06:00,72.1,0.0,30.09,South,176,0.0,3.0,0,0.00,,SCT031,0.00,VWS V14.01,2013-07-10 13:06:00,
2013-07-10 09:11:00,72.4,0.0,30.09,ESE,118,0.0,3.0,0,0.00,,SCT031,0.00,VWS V14.01,2013-07-10 13:11:00,
2013-07-10 09:16:00,72.6,0.0,30.09,ENE,67,1.0,3.0,0,0.00,,SCT031,0.00,VWS V14.01,2013-07-10 13:16:00,
2013-07-10 09:21:00,72.8,0.0,30.09,North,9,0.0,3.0,0,0.00,,SCT031,0.00,VWS V14.01,2013-07-10 13:21:00,
2013-07-10 09:26:00,72.8,0.0,30.09,ESE,114,1.0,3.0,0,0.00,,SCT031,0.00,VWS V14.01,2013-07-10 13:26:00,
2013-07-10 09:31:00,73.1,0.0,30.09,East,101,0.0,1.0,0,0.00,,SCT031,0.00,VWS V14.01,2013-07-10 13:31:00,
2013-07-10 09:36:00,73.3,0.0,30.09,East,96,0.0,1.0,0,0.00,,SCT031,0.00,VWS V14.01,2013-07-10 13:36:00,
2013-07-10 09:41:00,73.7,0.0,30.09,East,96,0.0,1.0,0,0.00,,SCT031,0.00,VWS V14.01,2013-07-10 13:41:00,
2013-07-10 09:46:00,74.0,0.0,30.09,SW,228,0.0,2.0,0,0.00,,SCT031,0.00,VWS V14.01,2013-07-10 13:46:00,
2013-07-10 09:51:00,74.2,0.0,30.09,South,176,0.0,3.0,0,0.00,,SCT031,0.00,VWS V14.01,2013-07-10 13:51:00,
2013-07-10 09:56:00,74.6,0.0,30.08,SSW,200,0.0,3.0,0,0.00,,SCT031,0.00,VWS V14.01,2013-07-10 13:56:00,
2013-07-10 10:01:00,74.9,0.0,30.08,SE,138,1.0,1.0,0,0.00,,SCT031,0.00,VWS V14.01,2013-07-10 14:01:00,
2013-07-10 10:06:00,75.0,0.0,30.08,SSW,200,0.0,2.0,0,0.00,,SCT031,0.00,VWS V14.01,2013-07-10 14:06:00,
2013-07-10 10:11:00,75.2,0.0,30.08,SE,132,1.0,2.0,0,0.00,,SCT031,0.00,VWS V14.01,2013-07-10 14:11:00,
2013-07-10 10:16:00,75.6,0.0,30.08,SE,131,1.0,2.0,0,0.00,,SCT031,0.00,VWS V14.01,2013-07-10 14:16:00,
2013-07-10 10:21:00,75.9,0.0,30.08,SE,146,0.0,2.0,0,0.00,,SCT031,0.00,VWS V14.01,2013-07-10 14:21:00,
2013-07-10 10:26:00,76.0,0.0,30.08,South,183,0.0,2.0,0,0.00,,SCT031,0.00,VWS V14.01,2013-07-10 14:26:00,
2013-07-10 10:31:00,75.9,0.0,30.08,SSW,203,3.0,3.0,0,0.00,,SCT031,0.00,VWS V14.01,2013-07-10 14:31:00,
2013-07-10 10:36:00,76.0,0.0,30.08,SSW,193,2.0,3.0,0,0.00,,SCT031,0.00,VWS V14.01,2013-07-10 14:36:00,
2013-07-10 10:41:00,76.1,0.0,30.08,West,259,0.0,3.0,0,0.00,,SCT031,0.00,VWS V14.01,2013-07-10 14:41:00,
2013-07-10 10:46:00,76.0,0.0,30.08,South,179,2.0,5.0,0,0.00,,SCT031,0.00,VWS V14.01,2013-07-10 14:46:00,
2013-07-10 10:51:00,76.3,0.0,30.08,SW,215,1.0,5.0,0,0.00,,SCT031,0.00,VWS V14.01,2013-07-10 14:51:00,
2013-07-10 10:56:00,76.3,0.0,30.08,SSW,197,0.0,5.0,0,0.00,,SCT031,0.00,VWS V14.01,2013-07-10 14:56:00,
2013-07-10 11:01:00,76.6,0.0,30.08,SSE,167,2.0,2.0,0,0.00,,SCT031,0.00,VWS V14.01,2013-07-10 15:01:00,
2013-07-10 11:06:00,76.8,0.0,30.08,SSW,208,0.0,2.0,0,0.00,,SCT031,0.00,VWS V14.01,2013-07-10 15:06:00,
2013-07-10 11:12:00,77.4,0.0,30.08,South,191,0.0,2.0,0,0.00,,SCT031,0.00,VWS V14.01,2013-07-10 15:12:00,
2013-07-10 11:17:00,78.0,0.0,30.08,WSW,252,0.0,3.0,0,0.00,,SCT031,0.00,VWS V14.01,2013-07-10 15:17:00,
2013-07-10 11:22:00,78.5,0.0,30.08,SE,124,1.0,3.0,0,0.00,,SCT031,0.00,VWS V14.01,2013-07-10 15:22:00,
2013-07-10 11:27:00,79.5,0.0,30.08,SE,128,1.0,3.0,0,0.00,,SCT031,0.00,VWS V14.01,2013-07-10 15:27:00,
2013-07-10 11:32:00,79.8,2.9,30.08,SSE,153,1.0,2.0,5,0.00,,SCT031,0.00,VWS V14.01,2013-07-10 15:32:00,
2013-07-10 11:37:00,80.4,7.3,30.08,SSE,148,0.0,2.0,6,0.00,,SCT031,0.00,VWS V14.01,2013-07-10 15:37:00,
2013-07-10 11:42:00,80.5,-1.4,30.08,SE,129,0.0,2.0,4,0.00,,SCT031,0.00,VWS V14.01,2013-07-10 15:42:00,
2013-07-10 11:47:00,81.1,19.4,30.08,South,187,0.0,3.0,10,0.00,,SCT031,0.00,VWS V14.01,2013-07-10 15:47:00,
2013-07-10 11:52:00,81.3,33.8,30.08,WSW,238,0.0,4.0,18,0.00,,SCT031,0.00,VWS V14.01,2013-07-10 15:52:00,
2013-07-10 11:57:00,81.4,25.9,30.08,ESE,119,1.0,4.0,13,0.00,,SCT031,0.00,VWS V14.01,2013-07-10 15:57:00,
2013-07-10 12:02:00,81.6,36.7,30.08,SE,145,0.0,1.0,20,0.00,,SCT031,0.00,VWS V14.01,2013-07-10 16:02:00,
2013-07-10 12:07:00,81.7,39.2,30.08,SSE,150,0.0,2.0,22,0.00,,SCT031,0.00,VWS V14.01,2013-07-10 16:07:00,
2013-07-10 12:12:00,82.2,33.1,30.07,SSW,197,2.0,6.0,17,0.00,,SCT031,0.00,VWS V14.01,2013-07-10 16:12:00,
2013-07-10 12:17:00,82.1,39.5,30.07,SSE,155,0.0,6.0,22,0.00,,SCT031,0.00,VWS V14.01,2013-07-10 16:17:00,
2013-07-10 12:22:00,82.7,40.0,30.07,SSE,156,0.0,6.0,22,0.00,,SCT031,0.00,VWS V14.01,2013-07-10 16:22:00,
2013-07-10 12:27:00,83.4,43.9,30.07,West,273,0.0,6.0,25,0.00,,SCT031,0.00,VWS V14.01,2013-07-10 16:27:00,
2013-07-10 12:32:00,83.9,44.3,30.06,WSW,253,0.0,1.0,25,0.00,,SCT031,0.00,VWS V14.01,2013-07-10 16:32:00,
2013-07-10 12:37:00,84.4,49.6,30.06,South,176,1.0,3.0,30,0.00,,SCT031,0.00,VWS V14.01,2013-07-10 16:37:00,
2013-07-10 12:42:00,84.2,55.9,30.06,West,266,2.0,3.0,38,0.00,,SCT031,0.00,VWS V14.01,2013-07-10 16:42:00,
2013-07-10 12:47:00,84.1,51.9,30.06,WSW,250,1.0,3.0,33,0.00,,SCT031,0.00,VWS V14.01,2013-07-10 16:47:00,
2013-07-10 12:52:00,84.8,46.1,30.05,SW,222,1.0,3.0,26,0.00,,SCT031,0.00,VWS V14.01,2013-07-10 16:52:00,
2013-07-10 12:57:00,85.2,55.3,30.05,SW,225,1.0,4.0,36,0.00,,SCT031,0.00,VWS V14.01,2013-07-10 16:57:00,
2013-07-10 13:02:00,85.6,57.8,30.05,SW,221,1.0,2.0,39,0.00,,SCT031,0.00,VWS V14.01,2013-07-10 17:02:00,
2013-07-10 13:07:00,86.0,58.2,30.04,WSW,252,1.0,4.0,39,0.00,,SCT031,0.00,VWS V14.01,2013-07-10 17:07:00,
2013-07-10 13:12:00,86.1,62.9,30.04,SSE,149,2.0,5.0,46,0.00,,SCT031,0.00,VWS V14.01,2013-07-10 17:12:00,
2013-07-10 13:17:00,86.0,62.8,30.03,SSW,203,1.0,5.0,46,0.00,,SCT031,0.00,VWS V14.01,2013-07-10 17:17:00,
2013-07-10 13:22:00,85.7,58.6,30.03,SSW,193,0.0,5.0,40,0.00,,SCT031,0.00,VWS V14.01,2013-07-10 17:22:00,
2013-07-10 13:27:00,85.4,59.0,30.03,South,172,2.0,5.0,41,0.00,,SCT031,0.00,VWS V14.01,2013-07-10 17:27:00,
2013-07-10 13:32:00,84.8,59.8,30.03,South,184,4.0,7.0,43,0.00,,SCT031,0.00,VWS V14.01,2013-07-10 17:32:00,
2013-07-10 13:37:00,84.6,56.9,30.03,SW,215,2.0,7.0,39,0.00,,SCT031,0.00,VWS V14.01,2013-07-10 17:37:00,
2013-07-10 13:42:00,84.1,57.2,30.03,SW,218,2.0,7.0,40,0.00,,SCT031,0.00,VWS V14.01,2013-07-10 17:42:00,
2013-07-10 13:47:00,83.9,52.6,30.03,SSW,208,1.0,7.0,34,0.00,,SCT031,0.00,VWS V14.01,2013-07-10 17:47:00,
2013-07-10 13:52:00,83.6,53.1,30.02,WSW,240,6.0,7.0,35,0.00,,SCT031,0.00,VWS V14.01,2013-07-10 17:52:00,
2013-07-10 13:57:00,83.5,51.4,30.02,SE,134,5.0,8.0,33,0.00,,SCT031,0.00,VWS V14.01,2013-07-10 17:57:00,
2013-07-10 14:02:00,83.4,46.0,30.02,SSE,165,2.0,6.0,27,0.00,,SCT031,0.00,VWS V14.01,2013-07-10 18:02:00,
2013-07-10 14:07:00,83.3,50.4,30.02,SW,222,2.0,6.0,32,0.00,,SCT031,0.00,VWS V14.01,2013-07-10 18:07:00,
2013-07-10 14:12:00,83.4,50.5,30.02,West,281,1.0,8.0,32,0.00,,SCT031,0.00,VWS V14.01,2013-07-10 18:12:00,
2013-07-10 14:17:00,83.4,51.3,30.02,West,274,3.0,8.0,33,0.00,,SCT031,0.00,VWS V14.01,2013-07-10 18:17:00,
2013-07-10 14:22:00,83.3,54.3,30.02,South,191,3.0,8.0,37,0.00,,SCT031,0.00,VWS V14.01,2013-07-10 18:22:00,
2013-07-10 14:27:00,83.3,52.8,30.01,SW,228,1.0,8.0,35,0.00,,SCT031,0.00,VWS V14.01,2013-07-10 18:27:00,
2013-07-10 14:32:00,83.3,55.1,30.01,SW,231,2.0,6.0,38,0.00,,SCT031,0.00,VWS V14.01,2013-07-10 18:32:00,
2013-07-10 14:37:00,83.4,53.7,30.01,SSW,193,1.0,6.0,36,0.00,,SCT031,0.00,VWS V14.01,2013-07-10 18:37:00,
2013-07-10 14:42:00,83.2,55.0,30.01,South,186,4.0,6.0,38,0.00,,SCT031,0.00,VWS V14.01,2013-07-10 18:42:00,
2013-07-10 14:47:00,82.6,52.2,30.01,South,188,1.0,8.0,35,0.00,,SCT031,0.00,VWS V14.01,2013-07-10 18:47:00,
2013-07-10 14:52:00,82.6,51.4,30.01,South,174,3.0,8.0,34,0.00,,SCT031,0.00,VWS V14.01,2013-07-10 18:52:00,
2013-07-10 14:57:00,82.3,45.0,30.01,West,259,3.0,8.0,27,0.00,,SCT031,0.00,VWS V14.01,2013-07-10 18:57:00,
2013-07-10 15:02:00,82.1,44.8,30.01,SSW,195,7.0,7.0,27,0.00,,SCT031,0.00,VWS V14.01,2013-07-10 19:02:00,
2013-07-10 15:07:00,82.1,46.7,30.01,SSW,197,2.0,7.0,29,0.00,,SCT031,0.00,VWS V14.01,2013-07-10 19:07:00,
2013-07-10 15:12:00,82.2,44.9,30.00,SW,217,4.0,7.0,27,0.00,,SCT031,0.00,VWS V14.01,2013-07-10 19:12:00,
2013-07-10 15:17:00,81.8,45.5,30.00,WSW,243,1.0,7.0,28,0.00,,SCT031,0.00,VWS V14.01,2013-07-10 19:17:00,
2013-07-10 15:22:00,81.0,41.9,30.00,SSW,194,2.0,7.0,25,0.00,,SCT031,0.00,VWS V14.01,2013-07-10 19:22:00,
2013-07-10 15:27:00,81.1,38.7,29.99,West,278,1.0,7.0,22,0.00,,SCT031,0.00,VWS V14.01,2013-07-10 19:27:00,
2013-07-10 15:32:00,81.9,35.6,29.98,WSW,240,3.0,8.0,19,0.00,,SCT031,0.00,VWS V14.01,2013-07-10 19:32:00,
2013-07-10 15:37:00,82.2,41.8,29.98,WSW,248,2.0,8.0,24,0.00,,SCT031,0.00,VWS V14.01,2013-07-10 19:37:00,
2013-07-10 15:42:00,82.1,47.6,29.98,SSE,166,1.0,9.0,30,0.00,,SCT031,0.00,VWS V14.01,2013-07-10 19:42:00,
2013-07-10 15:47:00,82.2,44.9,29.99,West,277,1.0,9.0,27,0.00,,SCT031,0.00,VWS V14.01,2013-07-10 19:47:00,
2013-07-10 15:52:00,82.0,45.7,29.99,West,260,1.0,9.0,28,0.00,,SCT031,0.00,VWS V14.01,2013-07-10 19:52:00,
2013-07-10 15:57:00,81.3,46.0,29.99,SSW,198,4.0,9.0,29,0.00,,SCT031,0.00,VWS V14.01,2013-07-10 19:57:00,
2013-07-10 16:02:00,80.8,40.7,29.99,SW,217,1.0,1.0,24,0.00,,SCT031,0.00,VWS V14.01,2013-07-10 20:02:00,
2013-07-10 16:07:00,80.5,39.3,29.99,SW,214,3.0,5.0,23,0.00,,SCT031,0.00,VWS V14.01,2013-07-10 20:07:00,
2013-07-10 16:12:00,80.5,28.6,29.99,SW,226,0.0,5.0,15,0.00,,SCT031,0.00,VWS V14.01,2013-07-10 20:12:00,
2013-07-10 16:17:00,80.3,30.1,29.99,SSW,212,0.0,5.0,16,0.00,,SCT031,0.00,VWS V14.01,2013-07-10 20:17:00,
2013-07-10 16:22:00,80.2,28.4,29.98,East,83,1.0,5.0,15,0.00,,SCT031,0.00,VWS V14.01,2013-07-10 20:22:00,
2013-07-10 16:27:00,80.1,24.9,29.98,SSW,195,1.0,5.0,13,0.00,,SCT031,0.00,VWS V14.01,2013-07-10 20:27:00,
2013-07-10 16:32:00,80.1,24.9,29.98,SSW,208,0.0,1.0,13,0.00,,SCT031,0.00,VWS V14.01,2013-07-10 20:32:00,
2013-07-10 16:37:00,80.1,16.2,29.98,SSE,163,0.0,2.0,9,0.00,,SCT031,0.00,VWS V14.01,2013-07-10 20:37:00,
2013-07-10 16:42:00,79.9,22.8,29.98,SSW,207,2.0,3.0,12,0.00,,SCT031,0.00,VWS V14.01,2013-07-10 20:42:00,
2013-07-10 16:47:00,79.9,22.8,29.98,SW,214,0.0,3.0,12,0.00,,SCT031,0.00,VWS V14.01,2013-07-10 20:47:00,
2013-07-10 16:52:00,79.8,24.6,29.98,South,169,1.0,3.0,13,0.00,,SCT031,0.00,VWS V14.01,2013-07-10 20:52:00,
2013-07-10 16:57:00,79.8,24.6,29.98,South,179,0.0,3.0,13,0.00,,SCT031,0.00,VWS V14.01,2013-07-10 20:57:00,
2013-07-10 17:02:00,79.9,20.8,29.98,SE,132,0.0,1.0,11,0.00,,SCT031,0.00,VWS V14.01,2013-07-10 21:02:00,
2013-07-10 17:07:00,79.8,16.0,29.98,WSW,238,0.0,1.0,9,0.00,,SCT031,0.00,VWS V14.01,2013-07-10 21:07:00,
2013-07-10 17:12:00,79.8,22.7,29.99,South,183,0.0,2.0,12,0.00,,SCT031,0.00,VWS V14.01,2013-07-10 21:12:00,
2013-07-10 17:17:00,79.9,13.4,29.98,SE,145,1.0,2.0,8,0.00,,SCT031,0.00,VWS V14.01,2013-07-10 21:17:00,
2013-07-10 17:22:00,79.9,18.5,29.98,South,176,0.0,2.0,10,0.00,,SCT031,0.00,VWS V14.01,2013-07-10 21:22:00,
2013-07-10 17:27:00,80.1,-15.7,29.98,SE,128,0.0,2.0,2,0.00,,SCT031,0.00,VWS V14.01,2013-07-10 21:27:00,
2013-07-10 17:32:00,80.1,-15.7,29.98,SSE,158,0.0,1.0,2,0.00,,SCT031,0.00,VWS V14.01,2013-07-10 21:32:00,
2013-07-10 17:37:00,80.1,18.7,29.98,SSE,160,0.0,1.0,10,0.00,,SCT031,0.00,VWS V14.01,2013-07-10 21:37:00,
2013-07-10 17:42:00,80.3,23.1,29.98,SSW,204,0.0,2.0,12,0.00,,SCT031,0.00,VWS V14.01,2013-07-10 21:42:00,
2013-07-10 17:47:00,80.7,21.4,29.98,SSW,208,1.0,2.0,11,0.00,,SCT031,0.00,VWS V14.01,2013-07-10 21:47:00,
2013-07-10 17:52:00,81.1,21.7,29.98,SSE,166,1.0,2.0,11,0.00,,SCT031,0.00,VWS V14.01,2013-07-10 21:52:00,
2013-07-10 17:57:00,81.5,35.3,29.98,SSE,163,3.0,5.0,19,0.00,,SCT031,0.00,VWS V14.01,2013-07-10 21:57:00,
2013-07-10 18:02:00,81.6,40.2,29.98,South,173,3.0,7.0,23,0.00,,SCT031,0.00,VWS V14.01,2013-07-10 22:02:00,
2013-07-10 18:07:00,81.9,41.6,29.97,SSW,205,0.0,7.0,24,0.00,,SCT031,0.00,VWS V14.01,2013-07-10 22:07:00,
2013-07-10 18:12:00,81.9,43.7,29.97,SE,127,1.0,7.0,26,0.00,,SCT031,0.00,VWS V14.01,2013-07-10 22:12:00,
2013-07-10 18:17:00,81.7,40.3,29.98,South,176,0.0,7.0,23,0.00,,SCT031,0.00,VWS V14.01,2013-07-10 22:17:00,
2013-07-10 18:22:00,81.4,42.2,29.98,SW,224,2.0,7.0,25,0.00,,SCT031,0.00,VWS V14.01,2013-07-10 22:22:00,
2013-07-10 18:27:00,81.1,42.0,29.98,SSE,149,0.0,7.0,25,0.00,,SCT031,0.00,VWS V14.01,2013-07-10 22:27:00,
2013-07-10 18:32:00,80.9,37.3,29.98,SSE,150,1.0,3.0,21,0.00,,SCT031,0.00,VWS V14.01,2013-07-10 22:32:00,
2013-07-10 18:37:00,80.7,37.2,29.98,South,183,0.0,3.0,21,0.00,,SCT031,0.00,VWS V14.01,2013-07-10 22:37:00,
2013-07-10 18:42:00,80.6,30.3,29.98,South,183,0.0,3.0,16,0.00,,SCT031,0.00,VWS V14.01,2013-07-10 22:42:00,
2013-07-10 18:47:00,80.4,25.1,29.98,South,183,0.0,3.0,13,0.00,,SCT031,0.00,VWS V14.01,2013-07-10 22:47:00,
2013-07-10 18:52:00,80.2,25.0,29.98,SSE,158,1.0,3.0,13,0.00,,SCT031,0.00,VWS V14.01,2013-07-10 22:52:00,
2013-07-10 18:57:00,80.2,21.0,29.98,SE,136,0.0,3.0,11,0.00,,SCT031,0.00,VWS V14.01,2013-07-10 22:57:00,
2013-07-10 19:02:00,80.1,18.7,29.98,SSE,160,0.0,1.0,10,0.00,,SCT031,0.00,VWS V14.01,2013-07-10 23:02:00,
2013-07-10 19:07:00,79.9,18.5,29.98,SSE,160,0.0,1.0,10,0.00,,SCT031,0.00,VWS V14.01,2013-07-10 23:07:00,
2013-07-10 19:12:00,79.9,13.4,29.98,SSE,160,0.0,1.0,8,0.00,,SCT031,0.00,VWS V14.01,2013-07-10 23:12:00,
2013-07-10 19:17:00,79.8,2.9,29.98,SSE,160,0.0,1.0,5,0.00,,SCT031,0.00,VWS V14.01,2013-07-10 23:17:00,
2013-07-10 19:22:00,79.6,-29.2,29.98,SSE,160,0.0,1.0,1,0.00,,SCT031,0.00,VWS V14.01,2013-07-10 23:22:00,
2013-07-10 19:27:00,79.4,0.0,29.98,ENE,74,0.0,1.0,0,0.00,,SCT031,0.00,VWS V14.01,2013-07-10 23:27:00,
2013-07-10 19:32:00,79.1,0.0,29.98,ENE,73,0.0,0.0,0,0.00,,SCT031,0.00,VWS V14.01,2013-07-10 23:32:00,
2013-07-10 19:37:00,78.8,0.0,29.98,ENE,74,0.0,1.0,0,0.00,,SCT031,0.00,VWS V14.01,2013-07-10 23:37:00,
2013-07-10 19:42:00,78.6,0.0,29.98,ENE,58,0.0,3.0,0,0.00,,SCT031,0.00,VWS V14.01,2013-07-10 23:42:00,
2013-07-10 19:47:00,78.5,0.0,29.98,East,81,0.0,3.0,0,0.00,,SCT031,0.00,VWS V14.01,2013-07-10 23:47:00,
2013-07-10 19:52:00,78.3,0.0,29.99,East,79,0.0,3.0,0,0.00,,SCT031,0.00,VWS V14.01,2013-07-10 23:52:00,
2013-07-10 19:57:00,78.1,0.0,29.99,East,79,0.0,3.0,0,0.00,,SCT031,0.00,VWS V14.01,2013-07-10 23:57:00,
2013-07-10 20:02:00,77.9,0.0,29.99,NE,45,0.0,1.0,0,0.00,,SCT031,0.00,VWS V14.01,2013-07-11 00:02:00,
2013-07-10 20:07:00,77.6,0.0,29.99,ENE,68,0.0,2.0,0,0.00,,SCT031,0.00,VWS V14.01,2013-07-11 00:07:00,
2013-07-10 20:12:00,77.4,0.0,29.99,East,79,0.0,2.0,0,0.00,,SCT031,0.00,VWS V14.01,2013-07-11 00:12:00,
2013-07-10 20:17:00,77.2,0.0,29.99,East,79,0.0,2.0,0,0.00,,SCT031,0.00,VWS V14.01,2013-07-11 00:17:00,
2013-07-10 20:23:00,77.0,0.0,29.99,ENE,60,0.0,2.0,0,0.00,,SCT031,0.00,VWS V14.01,2013-07-11 00:23:00,
2013-07-10 20:28:00,76.7,0.0,29.99,ENE,62,0.0,2.0,0,0.00,,SCT031,0.00,VWS V14.01,2013-07-11 00:28:00,
2013-07-10 20:33:00,76.5,0.0,29.99,ENE,62,0.0,1.0,0,0.00,,SCT031,0.00,VWS V14.01,2013-07-11 00:33:00,
2013-07-10 20:38:00,76.2,0.0,29.99,East,92,0.0,1.0,0,0.00,,SCT031,0.00,VWS V14.01,2013-07-11 00:38:00,
2013-07-10 20:43:00,76.0,0.0,29.99,East,92,0.0,1.0,0,0.00,,SCT031,0.00,VWS V14.01,2013-07-11 00:43:00,
2013-07-10 20:47:00,75.8,0.0,29.99,East,92,0.0,1.0,0,0.00,,SCT031,0.00,VWS V14.01,2013-07-11 00:47:00,
2013-07-10 20:52:00,75.6,0.0,29.99,East,91,0.0,1.0,0,0.00,,SCT031,0.00,VWS V14.01,2013-07-11 00:52:00,
2013-07-10 20:58:00,75.5,0.0,30.00,ESE,110,1.0,1.0,0,0.00,,SCT031,0.00,VWS V14.01,2013-07-11 00:58:00,
2013-07-10 21:02:00,75.4,0.0,30.00,ESE,110,0.0,0.0,0,0.00,,SCT031,0.00,VWS V14.01,2013-07-11 01:02:00,
2013-07-10 21:07:00,75.3,0.0,30.00,ESE,110,0.0,1.0,0,0.00,,SCT031,0.00,VWS V14.01,2013-07-11 01:07:00,
2013-07-10 21:13:00,75.3,0.0,30.00,ESE,110,0.0,1.0,0,0.00,,SCT031,0.00,VWS V14.01,2013-07-11 01:13:00,
2013-07-10 21:17:00,75.2,0.0,30.00,ESE,110,0.0,1.0,0,0.00,,SCT031,0.00,VWS V14.01,2013-07-11 01:17:00,
2013-07-10 21:22:00,75.1,0.0,29.99,ESE,110,0.0,1.0,0,0.00,,SCT031,0.00,VWS V14.01,2013-07-11 01:22:00,
2013-07-10 21:27:00,75.0,0.0,29.99,ESE,110,0.0,1.0,0,0.00,,SCT031,0.00,VWS V14.01,2013-07-11 01:27:00,
2013-07-10 21:32:00,74.9,0.0,29.99,ESE,110,0.0,0.0,0,0.00,,SCT031,0.00,VWS V14.01,2013-07-11 01:32:00,
2013-07-10 21:37:00,74.8,0.0,29.99,ESE,110,0.0,1.0,0,0.00,,SCT031,0.00,VWS V14.01,2013-07-11 01:37:00,
2013-07-10 21:42:00,74.6,0.0,29.98,ESE,110,0.0,1.0,0,0.00,,SCT031,0.00,VWS V14.01,2013-07-11 01:42:00,
2013-07-10 21:47:00,74.5,0.0,29.99,ESE,110,0.0,1.0,0,0.00,,SCT031,0.00,VWS V14.01,2013-07-11 01:47:00,
2013-07-10 21:53:00,74.4,0.0,29.99,ESE,110,0.0,1.0,0,0.00,,SCT031,0.00,VWS V14.01,2013-07-11 01:53:00,
2013-07-10 21:57:00,74.2,0.0,29.98,ESE,110,0.0,1.0,0,0.00,,SCT031,0.00,VWS V14.01,2013-07-11 01:57:00,
2013-07-10 22:02:00,74.0,0.0,29.98,ESE,110,0.0,1.0,0,0.00,,SCT031,0.00,VWS V14.01,2013-07-11 02:02:00,
2013-07-10 22:07:00,73.9,0.0,29.99,ESE,110,0.0,1.0,0,0.00,,SCT031,0.00,VWS V14.01,2013-07-11 02:07:00,
2013-07-10 22:13:00,73.7,0.0,29.99,ESE,110,0.0,1.0,0,0.00,,SCT031,0.00,VWS V14.01,2013-07-11 02:13:00,
2013-07-10 22:18:00,73.7,0.0,29.99,ESE,110,0.0,1.0,0,0.00,,SCT031,0.00,VWS V14.01,2013-07-11 02:18:00,
2013-07-10 22:23:00,73.6,0.0,29.99,ESE,110,0.0,1.0,0,0.00,,SCT031,0.00,VWS V14.01,2013-07-11 02:23:00,
2013-07-10 22:28:00,73.5,0.0,29.99,ESE,110,0.0,1.0,0,0.00,,SCT031,0.00,VWS V14.01,2013-07-11 02:28:00,
2013-07-10 22:33:00,73.4,0.0,29.99,ESE,110,0.0,0.0,0,0.00,,SCT031,0.00,VWS V14.01,2013-07-11 02:33:00,
2013-07-10 22:38:00,73.3,0.0,30.00,ESE,110,0.0,0.0,0,0.00,,SCT031,0.00,VWS V14.01,2013-07-11 02:38:00,
2013-07-10 22:43:00,73.3,0.0,30.00,ESE,110,0.0,0.0,0,0.00,,SCT031,0.00,VWS V14.01,2013-07-11 02:43:00,
2013-07-10 22:48:00,73.2,0.0,30.00,ESE,110,0.0,0.0,0,0.00,,SCT031,0.00,VWS V14.01,2013-07-11 02:48:00,
2013-07-10 22:53:00,73.3,0.0,30.00,ESE,123,0.0,1.0,0,0.00,,SCT031,0.00,VWS V14.01,2013-07-11 02:53:00,
2013-07-10 22:58:00,73.3,0.0,29.99,ESE,123,0.0,1.0,0,0.00,,SCT031,0.00,VWS V14.01,2013-07-11 02:58:00,
2013-07-10 23:03:00,73.3,0.0,30.00,SE,124,0.0,1.0,0,0.00,,SCT031,0.00,VWS V14.01,2013-07-11 03:03:00,
2013-07-10 23:08:00,73.3,0.0,30.00,ESE,122,0.0,1.0,0,0.00,,SCT031,0.00,VWS V14.01,2013-07-11 03:08:00,
2013-07-10 23:13:00,73.3,0.0,30.00,ESE,122,0.0,1.0,0,0.00,,SCT031,0.00,VWS V14.01,2013-07-11 03:13:00,
2013-07-10 23:18:00,73.2,0.0,30.00,ESE,123,0.0,1.0,0,0.00,,SCT031,0.00,VWS V14.01,2013-07-11 03:18:00,
2013-07-10 23:23:00,73.2,0.0,30.00,ESE,122,0.0,1.0,0,0.00,,SCT031,0.00,VWS V14.01,2013-07-11 03:23:00,
2013-07-10 23:28:00,73.3,0.0,30.00,ESE,122,0.0,1.0,0,0.00,,SCT031,0.00,VWS V14.01,2013-07-11 03:28:00,
2013-07-10 23:33:00,73.3,0.0,29.99,ESE,122,0.0,0.0,0,0.00,,SCT031,0.00,VWS V14.01,2013-07-11 03:33:00,
2013-07-10 23:38:00,73.3,0.0,29.99,ESE,123,0.0,0.0,0,0.00,,SCT031,0.00,VWS V14.01,2013-07-11 03:38:00,
2013-07-10 23:43:00,73.4,0.0,29.99,ESE,122,0.0,0.0,0,0.00,,SCT031,0.00,VWS V14.01,2013-07-11 03:43:00,
2013-07-10 23:48:00,73.4,0.0,29.99,ESE,122,0.0,0.0,0,0.00,,SCT031,0.00,VWS V14.01,2013-07-11 03:48:00,
2013-07-10 23:53:00,73.4,0.0,29.98,ESE,123,0.0,0.0,0,0.00,,SCT031,0.00,VWS V14.01,2013-07-11 03:53:00,
2013-07-10 23:58:00,73.5,0.0,29.98,ESE,122,0.0,0.0,0,0.00,,SCT031,0.00,VWS V14.01,2013-07-11 03:58:00,